Weather History for KBIE - March, 2013

Change the Weather History Date:

Thursday, March 14, 2013

  Actual Average Record
Temperature  
Mean Temperature 49 °F -  
Max Temperature 66 °F 55 °F 80 °F (2012)
Min Temperature 32 °F 29 °F -6 °F (1975)
Degree Days  
Heating Degree Days 16    
Moisture  
Dew Point 28 °F    
Average Humidity 50    
Maximum Humidity 76    
Minimum Humidity 24    
Precipitation  
Precipitation 0.00 in - - ()
Sea Level Pressure  
Sea Level Pressure 30.11 in    
Wind  
Wind Speed 8 mph (East)    
Max Wind Speed 15 mph    
Max Gust Speed 18 mph    
Visibility 10 miles    
Events      
Averages and records for this station are not official NWS values.
T = Trace of Precipitation, MM = Missing Value Source: NWS Daily Summary

Daily Weather History Graph

Daily Weather History Graph

Search for Another Location

Airport or City:

Trip Planner

Search our weather history database for the weather conditions in past years. The results will help you decide how hot, cold, wet, or windy it might be!

Date:

Astronomy

Mar. 14, 2013 Rise Set
Actual Time 7:39 AM CDT 7:33 PM CDT
Civil Twilight 7:12 AM CDT 8:00 PM CDT
Nautical Twilight 6:41 AM CDT 8:31 PM CDT
Astronomical Twilight 6:09 AM CDT 9:03 PM CDT
Moon 8:53 AM CDT (3/14) 10:51 PM CDT (3/14)
Length of Visible Light 12h 47m
Length of Day
11h 53m
Waxing Crescent, 9% of the Moon is Illuminated
Mar 14
Waxing Crescent
Mar 19
First Quarter
Mar 27
Full
Apr 2
Last Quarter
Apr 10
New

Hourly Weather History & Observations

Time (CDT) Temp. Windchill Dew Point Humidity Pressure Visibility Wind Dir Wind Speed Gust Speed Precip Events Conditions
12:15 AM 36.9 °F 30.1 °F 18.9 °F 48% 30.22 in 10.0 mi SSE 9.2 mph - N/A   Clear
12:35 AM 36.1 °F 28.7 °F 19.4 °F 51% 30.20 in 10.0 mi SSE 10.4 mph - N/A   Clear
12:55 AM 35.8 °F 28.8 °F 19.8 °F 52% 30.20 in 10.0 mi SSE 9.2 mph - N/A   Clear
1:15 AM 35.2 °F 27.6 °F 20.1 °F 54% 30.18 in 10.0 mi SSE 10.4 mph - N/A   Clear
1:35 AM 35.1 °F 27.4 °F 20.7 °F 56% 30.17 in 10.0 mi SSE 10.4 mph - N/A   Clear
1:55 AM 35.1 °F 27.4 °F 21.0 °F 57% 30.16 in 10.0 mi SSE 10.4 mph - N/A   Clear
2:15 AM 35.2 °F 27.1 °F 21.2 °F 57% 30.16 in 10.0 mi SSE 11.5 mph - N/A   Clear
2:35 AM 35.2 °F 27.6 °F 21.6 °F 58% 30.16 in 10.0 mi South 10.4 mph - N/A   Clear
2:55 AM 35.2 °F 28.1 °F 21.7 °F 58% 30.15 in 10.0 mi South 9.2 mph - N/A   Clear
3:15 AM 35.6 °F 29.2 °F 21.7 °F 57% 30.15 in 10.0 mi SSE 8.1 mph - N/A   Clear
3:35 AM 34.9 °F 28.3 °F 22.1 °F 60% 30.14 in 10.0 mi South 8.1 mph - N/A   Clear
3:55 AM 34.9 °F 28.3 °F 22.1 °F 60% 30.13 in 10.0 mi South 8.1 mph - N/A   Clear
4:15 AM 35.2 °F 28.1 °F 22.5 °F 60% 30.12 in 10.0 mi South 9.2 mph - N/A   Clear
4:35 AM 35.4 °F 29.0 °F 22.6 °F 60% 30.11 in 10.0 mi South 8.1 mph - N/A   Clear
4:55 AM 35.6 °F 28.6 °F 22.8 °F 60% 30.10 in 10.0 mi South 9.2 mph - N/A   Clear
5:15 AM 35.6 °F 29.9 °F 23.0 °F 60% 30.09 in 10.0 mi South 6.9 mph - N/A   Clear
5:35 AM 35.2 °F 28.1 °F 23.7 °F 63% 30.08 in 10.0 mi South 9.2 mph - N/A   Clear
5:55 AM 35.1 °F 29.3 °F 23.9 °F 64% 30.08 in 10.0 mi South 6.9 mph - N/A   Clear
6:15 AM 34.7 °F 28.1 °F 24.8 °F 67% 30.08 in 10.0 mi South 8.1 mph - N/A   Clear
6:35 AM 35.2 °F - 24.8 °F 66% 30.08 in 10.0 mi Calm Calm - N/A   Clear
6:55 AM 32.9 °F 29.8 °F 24.6 °F 72% 30.08 in 10.0 mi ESE 3.5 mph - N/A   Clear
7:15 AM 32.4 °F 27.9 °F 25.0 °F 74% 30.07 in 10.0 mi SSE 4.6 mph - N/A   Clear
7:35 AM 32.5 °F - 25.2 °F 74% 30.07 in 10.0 mi Calm Calm - N/A   Clear
7:55 AM 32.9 °F - 25.2 °F 73% 30.07 in 10.0 mi Calm Calm - N/A   Clear
8:15 AM 32.9 °F 29.8 °F 26.1 °F 76% 30.07 in 10.0 mi ESE 3.5 mph - N/A   Clear
8:35 AM 33.4 °F - 26.4 °F 75% 30.07 in 10.0 mi Calm Calm - N/A   Clear
8:55 AM 36.1 °F - 27.9 °F 72% 30.08 in 10.0 mi Calm Calm - N/A   Clear
9:15 AM 39.2 °F 35.9 °F 29.1 °F 67% 30.09 in 10.0 mi SW 4.6 mph - N/A   Clear
9:35 AM 39.6 °F 37.4 °F 29.5 °F 67% 30.09 in 10.0 mi WSW 3.5 mph - N/A   Clear
9:55 AM 41.4 °F 38.4 °F 30.9 °F 66% 30.09 in 10.0 mi West 4.6 mph - N/A   Clear
10:15 AM 43.7 °F 39.1 °F 32.0 °F 63% 30.10 in 10.0 mi West 8.1 mph - N/A   Clear
10:35 AM 46.6 °F - 32.7 °F 59% 30.10 in 10.0 mi West 8.1 mph - N/A   Clear
10:55 AM 49.1 °F - 33.1 °F 54% 30.10 in 10.0 mi NW 6.9 mph - N/A   Clear
11:15 AM 50.7 °F - 32.2 °F 49% 30.10 in 10.0 mi NW 10.4 mph - N/A   Clear
11:35 AM 52.9 °F - 32.2 °F 45% 30.11 in 10.0 mi NNW 9.2 mph - N/A   Clear
11:55 AM 56.8 °F - 32.0 °F 39% 30.12 in 10.0 mi NNW 12.7 mph 16.1 mph N/A   Clear
12:15 PM 59.2 °F - 31.3 °F 35% 30.11 in 10.0 mi North 6.9 mph - N/A   Clear
12:35 PM 61.2 °F - 30.4 °F 31% 30.11 in 10.0 mi NNE 6.9 mph - N/A   Clear
12:55 PM 63.7 °F - 30.7 °F 29% 30.11 in 10.0 mi North 10.4 mph - N/A   Clear
1:15 PM 64.8 °F - 30.2 °F 27% 30.12 in 10.0 mi North 13.8 mph - N/A   Clear
1:35 PM 65.5 °F - 31.3 °F 28% 30.12 in 10.0 mi North 12.7 mph - N/A   Clear
1:55 PM 64.8 °F - 31.3 °F 29% 30.13 in 10.0 mi North 15.0 mph - N/A   Clear
2:15 PM 64.9 °F - 31.3 °F 28% 30.12 in 10.0 mi North 15.0 mph 18.4 mph N/A   Clear
2:35 PM 65.7 °F - 30.9 °F 27% 30.12 in 10.0 mi North 12.7 mph 18.4 mph N/A   Clear
2:55 PM 66.4 °F - 31.1 °F 27% 30.11 in 10.0 mi North 11.5 mph 17.3 mph N/A   Clear
3:15 PM 66.0 °F - 30.4 °F 26% 30.10 in 10.0 mi North 13.8 mph - N/A   Clear
3:35 PM 66.2 °F - 30.0 °F 26% 30.10 in 10.0 mi NNE 11.5 mph - N/A   Clear
3:55 PM 65.8 °F - 29.7 °F 26% 30.10 in 10.0 mi North 9.2 mph - N/A   Clear
4:15 PM 66.4 °F - 30.4 °F 26% 30.09 in 10.0 mi NNE 10.4 mph 16.1 mph N/A   Clear
4:35 PM 65.8 °F - 30.6 °F 27% 30.09 in 10.0 mi North 9.2 mph - N/A   Clear
4:55 PM 66.2 °F - 30.0 °F 26% 30.10 in 10.0 mi North 5.8 mph - N/A   Clear
5:15 PM 66.4 °F - 28.8 °F 24% 30.10 in 10.0 mi North 10.4 mph - N/A   Clear
5:35 PM 66.2 °F - 29.8 °F 26% 30.10 in 10.0 mi North 9.2 mph - N/A   Clear
5:55 PM 65.7 °F - 30.4 °F 27% 30.11 in 10.0 mi North 11.5 mph - N/A   Clear
6:15 PM 64.2 °F - 31.6 °F 30% 30.12 in 10.0 mi North 11.5 mph - N/A   Clear
6:35 PM 62.4 °F - 32.0 °F 32% 30.11 in 10.0 mi NNE 8.1 mph - N/A   Clear
6:55 PM 60.4 °F - 32.2 °F 35% 30.10 in 10.0 mi NE 5.8 mph - N/A   Clear
7:15 PM 59.5 °F - 32.7 °F 36% 30.10 in 10.0 mi East 4.6 mph - N/A   Clear
7:35 PM 57.2 °F - 33.3 °F 40% 30.11 in 10.0 mi Calm Calm - N/A   Clear
7:55 PM 55.6 °F - 33.3 °F 43% 30.11 in 10.0 mi ESE 3.5 mph - N/A   Clear
8:15 PM 53.6 °F - 34.0 °F 47% 30.10 in 10.0 mi ESE 4.6 mph - N/A   Clear
8:35 PM 53.2 °F - 33.8 °F 48% 30.10 in 10.0 mi ESE 3.5 mph - N/A   Clear
8:55 PM 51.8 °F - 33.8 °F 50% 30.10 in 10.0 mi East 3.5 mph - N/A   Clear
9:15 PM 50.2 °F - 33.8 °F 53% 30.10 in 10.0 mi ESE 4.6 mph - N/A   Clear
9:35 PM 50.2 °F - 33.3 °F 52% 30.10 in 10.0 mi SE 3.5 mph - N/A   Clear
9:55 PM 49.1 °F - 33.3 °F 54% 30.10 in 10.0 mi ESE 3.5 mph - N/A   Clear
10:15 PM 47.5 °F - 33.1 °F 57% 30.10 in 10.0 mi ESE 3.5 mph - N/A   Clear
10:35 PM 46.4 °F 45.2 °F 33.3 °F 60% 30.10 in 10.0 mi ESE 3.5 mph - N/A   Clear
10:55 PM 44.6 °F 42.2 °F 33.1 °F 64% 30.09 in 10.0 mi ESE 4.6 mph - N/A   Clear
11:15 PM 44.2 °F - 33.1 °F 65% 30.09 in 10.0 mi Calm Calm - N/A   Clear
11:35 PM 41.2 °F - 31.8 °F 69% 30.09 in 10.0 mi Calm Calm - N/A   Clear
11:55 PM 41.7 °F - 32.5 °F 70% 30.08 in 10.0 mi Calm Calm - N/A   Clear